Regional Weather Roundup
Issued by NWS Goodland, KS

Home | Current Version | Previous Version | Graphics & Text | Print | Product List | Glossary On
Versions: 1 2 3 4 5 6 7 8 9 10 11 12 13 14 15 16 17 18 19 20 21 22 23 24 25 26 27 28 29 30 31 32 33 34 35 36 37 38 39 40 41 42 43 44 45 46 47 48 49 50
000
ASUS43 KGLD 011659
RWRGLD

GOODLAND FORECAST AREA HOURLY WEATHER ROUNDUP
NATIONAL WEATHER SERVICE GOODLAND KS
1100 AM MDT MON SEP 01 2014

...OFFICIAL OBSERVATIONS...

CITY           SKY/WX    TMP DP  RH WIND       PRES   REMARKS
GOODLAND KS    PTSUNNY   70  50  49 VRB6      30.04F
HILL CITY KS   SUNNY     73  54  51 CALM      29.98R
IMPERIAL NEB   PTSUNNY   66  53  63 NW7       30.03R
MCCOOK NEB     CLOUDY    67  56  67 NW6       30.00S
AKRON CO       CLOUDY    65  48  54 SW9       30.07F
BURLINGTON CO  SUNNY     70  46  42 CALM      30.06F
LIMON CO       SUNNY     70  45  40 S17       30.09F
$$

...UNOFFICIAL OBSERVATIONS...

CITY           SKY/WX    TMP DP  RH WIND       PRES   REMARKS
COLBY KS       CLOUDY    72  55  56 NW8       30.02F
GOVE KS          N/A     74  32  21 CALM        N/A
NORTON KS      PTSUNNY   73  48  40 NW10G17   29.96S
SHARON SPRINGS   N/A     73  53  48 N6G13       N/A
WAKEENEY KS      N/A     74  50  42 MISG        N/A
KIT CARSON CO    N/A     70  47  43 CALM        N/A
YUMA CO          N/A     65  50  58 W6          N/A
$$


USA.gov is the U.S. government's official web portal to all federal, state and local government web resources and services.